Terminal Aerodrome Forecast
Issued by NWS

Home | Current Version | Previous Version | Text Only | Print | Product List | Glossary Off
Versions: 1 2 3 4 5 6 7 8 9 10 11 12 13 14 15 16 17 18 19 20 21 22 23 24 25 26 27 28 29 30 31 32 33 34 35

000
FTUS43 KABR 182300
TAFPIR
TAF
KPIR 182320Z 1900/1924 17006KT P6SM OVC011
     FM190100 16006KT P6SM SKC
     FM191200 20006KT P6SM SKC=

USA.gov is the U.S. government's official web portal to all federal, state and local government web resources and services.